Charlottetown, Prince Edward Island

7:25 AM AST on December 07, 2016 (GMT -0400)
Charlottetown

Weather History for CYYG - May, 2014

Change the Weather History Date:

Monday, May 5, 2014

  Actual Average Record
Temperature  
Mean Temperature 36 °F -  
Max Temperature 40 °F 51 °F 75 °F (1999)
Min Temperature 33 °F 35 °F 30 °F (2002)
Degree Days  
Heating Degree Days 28    
Moisture  
Dew Point 36 °F    
Average Humidity 96    
Maximum Humidity 100    
Minimum Humidity 81    
Precipitation  
Precipitation 0.24 in - - ()
Sea Level Pressure  
Sea Level Pressure 29.50 in    
Wind  
Wind Speed 11 mph ()    
Max Wind Speed 20 mph    
Max Gust Speed 29 mph    
Visibility 6.8 miles    
Events Fog , Rain , Snow    
Averages and records for this station are not official NWS values.
T = Trace of Precipitation, MM = Missing Value Source: Averaged Metar Reports

Daily Weather History Graph

Daily Weather History Graph

Search for Another Location

Airport or City:

Trip Planner

Search our weather history database for the weather conditions in past years. The results will help you decide how hot, cold, wet, or windy it might be!

Date:

Astronomy

May. 05, 2014 Rise Set
Actual Time 5:52 AM ADT 8:26 PM ADT
Civil Twilight 5:18 AM ADT 9:00 PM ADT
Nautical Twilight 4:36 AM ADT 9:43 PM ADT
Astronomical Twilight 3:47 AM ADT 10:32 PM ADT
Moon 11:09 AM ADT (5/5) 1:07 AM ADT (5/5)
Length of Visible Light 15h 41m
Length of Day
14h 33m
Waxing Crescent, 36% of the Moon is Illuminated
May 5
Waxing Crescent
May 7
First Quarter
May 14
Full
May 21
Last Quarter
May 28
New

Hourly Weather History & Observations

Time (ADT) Temp. Windchill Dew Point Humidity Pressure Visibility Wind Dir Wind Speed Gust Speed Precip Events Conditions
12:00 AM 42.8 °F 38.0 °F 42.8 °F 100% 29.52 in 10.0 mi NE 8.1 mph - N/A Rain Light Rain
12:27 AM 42.8 °F 38.6 °F 42.8 °F 100% 29.52 in 10.0 mi East 6.9 mph - N/A Rain Light Rain
1:00 AM 42.8 °F 38.0 °F 41.0 °F 93% 29.52 in 10.0 mi East 8.1 mph - N/A Rain Light Rain
2:00 AM 41.0 °F 33.5 °F 39.2 °F 93% 29.50 in 10.0 mi East 13.8 mph - N/A Rain Light Rain
3:00 AM 40 °F - 39 °F 97% 29.49 in 10 mi East 10.4 mph - - Rain Light Rain
3:00 AM 41.0 °F 34.3 °F 39.2 °F 93% 29.49 in 10.0 mi East 11.5 mph - N/A Rain Light Rain
4:00 AM 39.2 °F 32.5 °F 39.2 °F 100% 29.47 in 15.0 mi East 10.4 mph - N/A Rain Light Rain
5:00 AM 39.2 °F 35.0 °F 39.2 °F 100% 29.45 in 15.0 mi ENE 5.8 mph - N/A Rain Light Rain
5:07 AM 39.2 °F 34.2 °F 39.2 °F 100% 29.45 in 15.0 mi NE 6.9 mph - N/A   Overcast
6:00 AM 39.2 °F 34.2 °F 39.2 °F 100% 29.46 in 12.0 mi NE 6.9 mph - N/A   Overcast
6:28 AM 37.4 °F 30.8 °F 37.4 °F 100% 29.47 in 0.5 mi NNE 9.2 mph - N/A Fog Fog
6:44 AM 37.4 °F 30.3 °F 37.4 °F 100% 29.47 in 0.5 mi North 10.4 mph - N/A Fog , Rain Light Rain Showers
7:00 AM 37.4 °F 31.4 °F 37.4 °F 100% 29.48 in 0.5 mi North 8.1 mph - N/A Fog , Rain Light Rain Showers
7:08 AM 37.4 °F 31.4 °F 37.4 °F 100% 29.48 in 1.5 mi North 8.1 mph - N/A Rain Light Rain Showers
7:50 AM 37.4 °F 32.8 °F 37.4 °F 100% 29.48 in 3.0 mi North 5.8 mph - N/A Rain Light Rain Showers
8:00 AM 37.4 °F 33.8 °F 37.4 °F 100% 29.48 in 6.0 mi North 4.6 mph - N/A Rain Light Rain Showers
9:00 AM 37 °F - 37 °F 99% 29.48 in 5 mi North 13.8 mph - - Rain Light Rain
9:00 AM 37.4 °F 28.9 °F 37.4 °F 100% 29.48 in 5.0 mi North 13.8 mph - N/A Rain Light Rain
9:14 AM 35.6 °F 25.2 °F 35.6 °F 100% 29.48 in 5.0 mi NNE 18.4 mph - N/A Rain Light Rain
10:00 AM 35.6 °F 24.8 °F 35.6 °F 100% 29.48 in 5.0 mi North 19.6 mph 27.6 mph N/A Rain Light Rain
10:36 AM 35.6 °F 25.5 °F 35.6 °F 100% 29.49 in 6.0 mi NNE 17.3 mph 28.8 mph N/A   Light Drizzle
11:00 AM 35.6 °F 25.2 °F 35.6 °F 100% 29.49 in 3.0 mi North 18.4 mph 26.5 mph N/A   Light Drizzle
11:06 AM 35.6 °F 25.5 °F 35.6 °F 100% 29.49 in 2.0 mi North 17.3 mph 24.2 mph N/A   Light Drizzle
11:30 AM 35.6 °F 25.9 °F 35.6 °F 100% 29.49 in 2.5 mi North 16.1 mph 26.5 mph N/A Rain , Snow Light Rain Showers
12:00 PM 35.6 °F 26.6 °F 35.6 °F 100% 29.49 in 3.0 mi North 13.8 mph 23.0 mph N/A Rain , Snow Light Rain Showers
12:40 PM 33.8 °F 23.9 °F 33.8 °F 100% 29.49 in 1.5 mi North 15.0 mph 21.9 mph N/A Snow Light Snow Showers
1:00 PM 33.8 °F 24.8 °F 33.8 °F 100% 29.49 in 2.0 mi North 12.7 mph 23.0 mph N/A Snow Light Snow Showers
1:35 PM 33.8 °F 23.5 °F 33.8 °F 100% 29.49 in 3.0 mi North 16.1 mph 24.2 mph N/A Snow Light Snow Showers
3:00 PM 34 °F - 33 °F 96% 29.50 in 2 mi North 17.3 mph - - Snow Light Snow Showers
3:00 PM 33.8 °F 23.2 °F 33.8 °F 100% 29.50 in 2.0 mi North 17.3 mph 25.3 mph N/A Snow Light Snow Showers
3:06 PM 33.8 °F 23.9 °F 33.8 °F 100% 29.50 in 0.8 mi NNW 15.0 mph 25.3 mph N/A Snow Light Snow Showers
3:28 PM 33.8 °F 24.3 °F 32.0 °F 93% 29.51 in 0.6 mi NNW 13.8 mph 27.6 mph N/A Snow Light Snow Showers
4:00 PM 33.8 °F 23.5 °F 32.0 °F 93% 29.51 in 0.6 mi NNW 16.1 mph 24.2 mph N/A Snow Light Snow Showers
4:14 PM 33.8 °F 23.9 °F 33.8 °F 100% 29.51 in 2.5 mi NNW 15.0 mph 26.5 mph N/A Snow Light Snow Showers
4:44 PM 35.6 °F 26.2 °F 33.8 °F 93% 29.52 in 3.0 mi North 15.0 mph 26.5 mph N/A Rain , Snow Light Rain Showers
5:00 PM 35.6 °F 25.2 °F 33.8 °F 93% 29.52 in 4.0 mi North 18.4 mph 26.5 mph N/A Rain Light Rain Showers
6:00 PM 35.6 °F 26.6 °F 33.8 °F 93% 29.53 in 6.0 mi North 13.8 mph 24.2 mph N/A Rain Light Rain Showers
6:19 PM 35.6 °F 26.6 °F 33.8 °F 93% 29.53 in 10.0 mi North 13.8 mph 24.2 mph N/A Rain Light Rain Showers
7:00 PM 37.4 °F 28.9 °F 35.6 °F 93% 29.53 in 15.0 mi North 13.8 mph 23.0 mph N/A   Mostly Cloudy
8:00 PM 37.4 °F 28.5 °F 33.8 °F 87% 29.53 in 12.0 mi North 15.0 mph 26.5 mph N/A   Mostly Cloudy
9:00 PM 37 °F - 33 °F 81% 29.54 in 15 mi NNW 12.7 mph - -   Partly Cloudy
9:00 PM 37.4 °F 29.3 °F 33.8 °F 87% 29.54 in 15.0 mi NNW 12.7 mph 24.2 mph N/A   Mostly Cloudy
10:00 PM 37.4 °F 29.3 °F 33.8 °F 87% 29.55 in 15.0 mi NNW 12.7 mph 21.9 mph N/A   Mostly Cloudy
10:34 PM 35.6 °F 26.2 °F 32.0 °F 87% 29.55 in 15.0 mi NNW 15.0 mph 21.9 mph N/A   Scattered Clouds
11:00 PM 37.4 °F 28.9 °F 32.0 °F 81% 29.56 in 15.0 mi North 13.8 mph 21.9 mph N/A   Scattered Clouds